Carlsbad, NM

10:08 AM MDT on April 28, 2017 (GMT -0600)
Cavern City

Weather History for KCNM - February, 2014

Change the Weather History Date:

Saturday, February 22, 2014

  Actual Average Record
Temperature  
Mean Temperature 56 °F -  
Max Temperature 79 °F 62 °F 84 °F (2017)
Min Temperature 34 °F 31 °F 13 °F (1971)
Degree Days  
Heating Degree Days 8    
Growing Degree Days 6 (Base 50)    
Moisture  
Dew Point 6 °F    
Average Humidity 17    
Maximum Humidity 40    
Minimum Humidity 4    
Precipitation  
Precipitation 0.00 in - - ()
Sea Level Pressure  
Sea Level Pressure 29.80 in    
Wind  
Wind Speed 8 mph (West)    
Max Wind Speed 21 mph    
Max Gust Speed 32 mph    
Visibility 10 miles    
Events      
Averages and records for this station are not official NWS values.
T = Trace of Precipitation, MM = Missing Value Source: NWS Daily Summary

Daily Weather History Graph

Daily Weather History Graph

Search for Another Location

Airport or City:

Trip Planner

Search our weather history database for the weather conditions in past years. The results will help you decide how hot, cold, wet, or windy it might be!

Date:

Astronomy

Feb. 22, 2014 Rise Set
Actual Time 6:32 AM MST 5:49 PM MST
Civil Twilight 6:07 AM MST 6:13 PM MST
Nautical Twilight 5:39 AM MST 6:42 PM MST
Astronomical Twilight 5:10 AM MST 7:10 PM MST
Moon 12:22 AM MST (2/22) 11:10 AM MST (2/22)
Length of Visible Light 12h 06m
Length of Day
11h 16m
Waning Gibbous, 49% of the Moon is Illuminated
Feb 22
Waning Gibbous
Mar 1
New
Mar 8
First Quarter
Mar 16
Full
Mar 23
Last Quarter

Hourly Weather History & Observations

Time (MST) Temp. Windchill Dew Point Humidity Pressure Visibility Wind Dir Wind Speed Gust Speed Precip Events Conditions
12:53 AM 44.1 °F 40.8 °F 10.9 °F 26% 29.81 in - WNW 5.8 mph - N/A   Clear
1:53 AM 43.0 °F - 12.0 °F 28% 29.81 in - Calm Calm - N/A   Clear
2:53 AM 39.9 °F 33.9 °F 14.0 °F 35% 29.81 in - WNW 9.2 mph - N/A   Clear
3:53 AM 39.9 °F 34.5 °F 10.0 °F 29% 29.82 in - NNW 8.1 mph - N/A   Clear
4:53 AM 39.9 °F 36.7 °F 10.0 °F 29% 29.83 in - NNW 4.6 mph - N/A   Clear
5:53 AM 41.0 °F 38.0 °F 8.1 °F 26% 29.85 in - NNE 4.6 mph - N/A   Clear
6:53 AM 34.0 °F 29.8 °F 12.0 °F 40% 29.88 in - South 4.6 mph - N/A   Clear
7:53 AM 37.9 °F - 12.0 °F 35% 29.90 in - Calm Calm - N/A   Clear
8:53 AM 48.0 °F - 10.9 °F 22% 29.90 in - NNE 3.5 mph - N/A   Clear
9:53 AM 57.0 °F - 10.9 °F 16% 29.88 in - NNE 4.6 mph - N/A   Clear
10:53 AM 62.1 °F - 7.0 °F 11% 29.84 in - Calm Calm - N/A   Clear
11:53 AM 72.0 °F - 7.0 °F 8% 29.79 in - SE 6.9 mph - N/A   Clear
12:53 PM 78.1 °F - 1.9 °F 5% 29.74 in - WSW 20.7 mph 27.6 mph N/A   Clear
1:53 PM 79.0 °F - -4.0 °F 4% 29.71 in 10.0 mi WSW 20.7 mph 32.2 mph N/A   Clear
2:53 PM 78.1 °F - -2.0 °F 4% 29.70 in 10.0 mi WSW 18.4 mph 28.8 mph N/A   Clear
3:53 PM 78.1 °F - -4.0 °F 4% 29.69 in 10.0 mi WSW 19.6 mph 28.8 mph N/A   Clear
4:53 PM 75.9 °F - -2.9 °F 4% 29.70 in 10.0 mi WSW 18.4 mph 28.8 mph N/A   Clear
5:53 PM 71.1 °F - -0.9 °F 6% 29.72 in 10.0 mi WSW 15.0 mph - N/A   Clear
6:53 PM 61.0 °F - 1.9 °F 9% 29.78 in 10.0 mi WSW 11.5 mph - N/A   Clear
7:53 PM 61.0 °F - 3.0 °F 10% 29.80 in 10.0 mi WSW 13.8 mph - N/A   Clear
8:53 PM 55.9 °F - 3.9 °F 12% 29.81 in 10.0 mi WSW 11.5 mph - N/A   Clear
9:53 PM 54.0 °F - 5.0 °F 14% 29.80 in 10.0 mi WSW 12.7 mph - N/A   Clear
10:53 PM 53.1 °F - 5.0 °F 14% 29.80 in 10.0 mi WSW 11.5 mph - N/A   Clear
11:53 PM 55.0 °F - 3.9 °F 13% 29.78 in 10.0 mi WSW 13.8 mph - N/A   Clear